Location: Niles Junction
(37.5763°N, 121.9714°W)
Time: 04:33:19
(UTC+00:00)

Cosmos 1484 Rocket - Pass Details

Date: 29 October 2020
Orbit: 505 x 560 km, 97.4° (Epoch: 23 November)

Event Time Altitude Azimuth Distance (km) Brightness Sun altitude
Rises 13:15:48 0° 1° (N) 2,679 6.3 -15.3°
Reaches altitude 10° 13:18:04 10° 352° (N) 1,774 5.3 -14.9°
Maximum altitude 13:21:30 33° 288° (WNW) 899 3.4 -14.2°
Drops below altitude 10° 13:24:52 10° 223° (SW) 1,736 5.0 -13.5°
Sets 13:27:04 0° 214° (SSW) 2,610 6.0 -13.1°
